Theta_e
294 295 295 295 294 295 294 296 291 295 294 299 302 303 304 307 308 307 306 307 309 310 312 313 312 314 314 314 314 316 314 313 314 316 315 314 315 321 322 321 318 316 316 317
291 294 294 292 294 295 296 296 296 297 296 303 304 304 304 305 305 305 306 307 309 310 310 311 312 312 313 314 314 315 313 312 312 312 312 312 312 314 321 318 316 318 317 317
286 293 292 289 295 296 297 298 297 293 298 301 300 301 304 304 305 305 305 306 308 309 310 312 312 313 313 314 314 313 312 312 311 311 310 311 311 311 312 317 316 314 315 317
286 289 281 293 300 300 297 298 299 299 300 301 303 305 305 305 304 305 307 308 309 309 310 311 312 312 313 312 312 310 309 309 310 309 308 308 308 309 310 315 317 316 315 315
283 285 290 293 297 296 296 295 301 300 301 302 303 303 303 306 308 307 308 308 309 309 309 310 310 311 311 310 309 308 307 308 308 307 306 306 307 307 307 311 315 317 317 316
286 283 281 294 300 302 300 290 303 302 301 301 301 294 298 307 307 307 308 308 308 308 309 308 309 309 307 306 306 306 306 306 307 307 306 305 306 306 307 308 312 316 318 320
284 284 289 298 301 303 288 292 302 302 302 301 298 301 305 307 307 307 307 307 308 307 306 307 306 305 302 302 301 301 303 304 305 305 305 306 306 306 306 306 307 309 314 318
286 284 283 301 300 293 299 303 303 302 302 300 302 303 304 305 306 305 305 305 306 303 303 302 301 300 298 297 300 300 301 300 303 304 304 305 305 305 304 305 304 306 309 314
292 292 301 302 302 306 305 302 302 302 302 302 301 301 302 303 304 304 305 303 303 301 297 297 297 296 294 295 296 297 298 298 300 304 304 304 304 304 302 302 302 301 304 308
295 298 299 301 304 304 303 303 303 303 302 302 300 301 302 302 303 303 302 301 299 295 294 293 292 293 294 294 295 295 294 298 299 299 301 303 303 302 303 302 302 301 302 305
295 298 300 301 302 302 302 303 302 303 302 302 301 300 301 301 300 300 299 297 294 291 290 290 291 291 292 293 293 292 293 295 296 297 298 300 301 300 300 302 302 302 304 307
293 298 299 299 302 303 301 300 301 300 300 301 301 301 300 299 299 297 294 292 290 289 289 288 289 290 290 292 292 291 291 293 295 296 298 299 298 299 296 295 295 294 294 297
299 301 301 301 302 302 301 302 302 301 301 300 302 300 299 297 295 293 290 289 288 287 288 288 288 288 290 291 292 291 291 293 295 295 296 296 296 295 295 297 294 294 293 293
302 300 297 299 298 302 303 303 303 301 302 300 299 299 296 291 290 288 287 287 287 288 287 287 288 288 291 291 291 291 291 291 292 295 295 295 295 295 296 295 296 299 296 294
300 301 300 301 302 301 302 302 300 299 299 298 298 295 291 288 286 286 286 287 286 286 286 286 286 288 290 291 290 291 291 291 291 292 294 294 294 296 296 296 297 298 301 297
299 300 300 299 299 300 300 299 298 297 297 296 294 291 288 287 285 285 286 285 284 282 284 285 286 288 288 288 289 289 290 290 290 291 292 292 292 292 293 295 297 298 299 300
297 296 297 297 297 298 298 299 298 297 296 293 289 288 286 284 284 283 283 284 284 284 285 285 285 286 288 289 290 291 291 291 289 291 290 291 291 291 292 293 295 297 298 300
301 299 299 298 297 297 298 297 297 296 292 290 288 285 284 283 281 281 282 283 283 284 284 284 285 286 288 290 293 296 294 293 293 292 292 290 290 291 292 293 294 295 297 297
300 298 298 299 299 298 297 297 297 295 292 289 286 283 283 282 282 281 282 281 281 280 281 284 286 286 288 291 293 298 297 297 298 296 294 291 290 291 291 293 294 296 297 297
298 298 299 299 298 298 297 297 296 293 291 289 286 284 282 281 281 281 281 280 281 281 283 284 285 286 287 291 293 301 304 304 306 300 297 295 292 292 293 291 294 296 297 299
297 298 297 296 297 297 297 296 294 292 290 288 284 283 282 281 281 281 279 278 280 282 283 284 284 285 287 289 294 296 299 300 301 303 299 295 294 294 294 295 296 298 298 299
298 297 296 297 296 296 296 295 293 292 289 287 285 284 282 280 280 280 281 279 281 281 283 282 283 284 286 287 291 292 292 294 295 297 299 301 300 298 297 298 298 299 301 302
297 296 297 296 295 295 295 294 293 292 289 287 285 283 281 280 280 278 276 280 281 281 282 281 282 284 284 288 288 288 289 289 290 292 292 294 295 297 299 301 302 302 302 303
297 297 297 297 296 294 293 294 292 292 291 289 287 285 283 280 280 281 281 280 280 280 281 281 282 283 284 285 285 285 285 286 286 288 289 288 290 291 292 293 295 297 300 303
297 297 297 296 295 294 294 295 293 291 292 290 287 287 285 284 281 281 281 280 280 280 280 281 281 282 283 282 282 283 283 284 285 285 286 286 287 288 289 289 289 291 293 296
297 296 296 298 296 296 295 294 293 290 291 291 290 288 287 286 284 283 281 280 280 280 279 280 281 281 281 281 281 281 281 282 283 283 284 285 285 286 286 286 287 288 289 290
296 294 296 296 296 297 295 293 293 292 291 291 291 290 289 288 285 284 282 281 280 280 280 280 280 280 280 280 280 280 280 281 281 282 282 283 284 284 284 285 284 285 286 286
Wind_Speed
16 20 22 24 24 20 22 22 21 18 24 20 18 17 14 13 15 15 17 14 9 12 11 9 12 11 10 11 12 8 8 9 7 7 10 14 15 12 9 9 6 3 5 9
15 18 21 26 25 26 27 24 25 26 26 19 18 16 19 12 8 9 14 14 13 13 13 13 13 12 11 10 10 10 11 12 11 11 11 13 14 17 9 9 9 6 7 8
14 16 18 16 19 23 23 22 23 21 20 13 14 10 11 9 9 12 15 16 15 14 12 11 13 12 11 10 10 10 10 11 12 11 12 13 14 15 17 9 10 10 11 7
7 14 14 10 8 7 12 10 13 14 13 8 9 10 11 12 14 12 14 16 16 16 16 17 16 15 15 13 13 13 12 12 12 12 13 15 15 16 14 12 12 11 10 11
4 9 18 24 20 14 15 12 3 12 12 9 14 14 12 9 17 17 17 17 16 16 18 18 18 17 14 13 13 13 14 15 13 13 15 18 16 15 14 14 12 13 12 14
3 6 6 4 4 5 10 10 13 15 12 13 15 11 11 20 20 19 18 16 17 18 17 19 17 12 14 15 15 16 16 16 16 18 15 19 18 14 12 14 12 11 13 14
8 6 9 10 3 2 8 4 7 8 12 15 13 13 18 19 19 18 18 20 21 21 18 12 14 16 18 18 19 18 19 19 19 17 17 17 15 13 11 12 12 12 13 12
5 6 9 15 10 6 6 10 8 11 13 15 16 19 20 20 19 20 21 22 20 15 15 17 18 17 19 20 19 19 19 15 19 13 14 13 15 12 13 11 11 10 12 10
7 4 4 9 10 11 6 7 9 11 12 13 18 20 21 19 19 19 21 16 18 17 20 21 16 14 19 20 20 18 18 17 15 13 10 12 13 11 10 13 11 10 10 10
7 5 7 10 7 12 13 16 12 13 16 17 19 20 21 19 19 17 16 18 18 21 20 20 19 16 16 19 19 18 17 16 13 13 10 11 9 9 11 11 11 10 10 10
16 8 14 13 10 6 9 12 14 15 16 18 20 20 21 18 18 17 17 18 18 19 18 20 18 18 17 17 17 16 16 13 12 10 11 12 11 9 9 11 10 10 9 7
4 5 5 11 12 13 13 15 14 14 17 18 19 19 19 17 16 17 18 20 18 19 18 19 19 18 17 15 14 15 14 12 9 8 9 9 9 9 12 13 12 10 12 5
5 8 9 10 11 15 15 13 13 15 17 20 18 16 18 17 18 23 19 18 18 19 19 19 19 18 16 15 14 13 12 12 9 11 8 10 9 9 9 8 15 19 18 9
7 10 10 10 13 14 13 8 12 16 17 16 17 16 15 15 19 18 17 18 19 19 19 18 18 18 17 16 15 14 13 17 10 8 8 7 7 8 8 9 9 9 18 16
6 7 9 12 13 11 12 13 15 16 16 16 16 14 13 18 19 18 17 16 18 18 17 16 18 18 16 15 14 14 11 9 8 9 8 9 7 5 7 8 8 7 6 7
9 10 10 11 13 14 15 15 16 17 16 16 15 13 16 17 16 16 16 16 16 16 18 17 17 17 17 16 15 12 11 16 13 8 7 8 8 9 7 6 7 7 7 7
7 10 12 13 14 14 14 14 15 15 15 15 13 17 17 16 16 15 16 16 16 16 15 16 18 19 19 17 14 9 8 7 8 7 8 8 7 8 8 8 7 5 7 7
7 9 11 12 13 13 14 14 14 15 13 11 15 15 15 16 16 17 17 17 16 13 14 15 17 20 18 16 13 9 6 6 6 7 7 8 8 7 7 7 8 7 4 2
8 10 11 12 12 12 13 13 14 13 12 12 14 14 14 14 14 16 16 15 14 17 17 19 27 22 17 18 18 4 5 6 7 7 7 7 7 6 7 7 8 7 7 8
11 10 10 12 13 12 13 12 13 13 11 13 14 13 15 15 15 15 14 13 13 12 19 18 19 16 16 18 19 8 8 4 6 6 7 7 7 7 6 7 8 6 7 6
10 10 12 12 12 13 12 13 13 11 11 12 14 14 15 14 13 13 12 11 16 18 19 21 16 13 11 14 11 10 11 10 10 8 8 8 6 6 6 7 7 7 8 7
8 10 11 11 12 12 13 13 12 11 11 12 13 13 13 14 13 12 9 12 12 20 15 12 13 20 14 14 11 12 12 12 11 10 9 6 5 6 6 5 6 6 6 7
8 10 10 12 13 13 13 13 13 12 10 10 11 15 12 10 9 12 13 16 12 16 11 12 19 20 18 12 11 12 13 13 12 11 10 9 8 7 5 2 3 5 5 6
9 11 11 12 12 12 14 12 12 13 8 9 7 10 12 11 9 9 10 13 18 16 12 15 17 19 17 12 12 12 12 12 11 10 10 11 9 8 8 8 7 6 5 4
9 10 12 13 11 10 12 11 11 12 10 8 8 6 12 10 9 10 10 11 16 14 12 18 20 20 13 13 13 13 12 12 12 10 11 10 10 10 9 8 8 7 6 6
9 8 8 11 9 8 9 10 9 10 10 9 9 8 7 10 10 10 10 14 12 15 13 13 14 14 14 14 14 14 13 13 13 12 12 11 11 11 10 10 9 9 8 7
10 10 8 8 8 8 8 10 11 10 11 10 10 11 11 9 12 12 14 13 13 13 13 13 13 16 14 14 14 14 13 12 16 12 12 12 11 11 11 10 10 9 9 10
Wind_Direction
276 283 284 284 284 268 254 262 261 274 273 279 288 294 281 281 254 226 248 269 299 291 292 300 293 284 284 280 277 273 273 275 276 288 300 300 298 278 285 284 262 287 311 310
267 268 266 263 264 266 264 264 256 263 268 274 270 276 259 273 355 319 296 299 304 294 297 302 299 295 298 295 289 284 273 263 263 254 264 272 285 296 264 269 253 238 240 244
276 285 298 285 257 251 256 259 265 266 278 299 289 303 17 343 307 305 322 312 308 313 319 328 321 313 313 309 313 286 273 285 283 282 278 270 271 277 288 233 250 229 250 238
293 302 268 275 312 292 283 293 291 304 304 340 0 341 338 333 311 331 350 337 329 323 318 317 318 310 297 293 283 276 284 283 283 285 281 286 286 290 283 280 237 247 239 252
245 254 284 287 277 292 318 285 355 302 356 354 324 313 293 308 1 346 336 326 317 313 309 306 303 301 307 301 290 285 280 277 282 288 283 275 278 279 290 283 260 240 241 234
187 255 278 40 354 312 331 264 30 357 343 339 337 315 317 343 340 329 318 312 307 302 307 305 300 343 327 313 307 298 286 277 267 267 259 261 262 277 280 293 297 279 245 253
235 254 269 291 204 281 243 9 352 300 322 341 332 323 322 326 319 305 309 317 314 297 289 344 344 328 309 299 291 285 280 281 278 274 257 252 253 253 272 281 287 302 283 249
203 240 246 9 342 295 351 325 329 338 340 334 322 313 310 309 310 321 315 302 299 331 331 328 317 309 302 295 292 287 282 283 286 253 261 256 244 248 259 266 275 290 289 284
207 249 280 279 293 291 337 332 316 331 330 320 310 308 307 310 316 308 296 322 339 332 320 310 305 301 293 291 290 285 282 279 261 276 245 244 248 245 254 261 265 264 274 281
276 264 291 283 278 27 346 310 349 334 323 309 301 313 318 315 301 306 335 337 332 318 304 302 300 298 294 295 287 281 282 283 283 261 263 223 241 244 243 242 244 243 249 261
278 335 341 51 1 313 284 333 324 317 327 325 325 314 306 302 321 335 335 326 314 306 301 300 302 295 292 295 297 291 287 278 264 252 253 250 239 235 238 243 244 250 239 250
303 2 311 313 316 353 335 328 328 329 324 324 305 298 321 325 338 334 323 315 310 307 302 301 299 296 297 291 284 286 283 278 264 253 249 237 235 242 233 237 268 281 276 229
324 314 303 328 335 334 318 324 322 332 319 302 312 332 341 341 334 320 313 311 309 306 302 304 300 297 296 290 279 271 274 274 268 263 257 242 235 234 232 239 234 233 242 193
17 12 338 338 310 294 297 322 347 315 297 338 330 351 359 332 321 317 315 312 307 308 308 303 302 299 297 294 286 275 269 267 274 259 247 246 247 237 233 231 235 223 232 227
356 354 303 286 294 310 342 342 321 328 340 331 357 355 342 331 320 316 312 310 314 310 307 307 306 304 309 303 298 290 276 257 250 254 246 229 240 264 220 226 237 236 245 217
342 303 306 342 341 341 347 339 336 339 336 355 357 350 336 321 314 315 317 319 320 320 314 313 309 308 309 302 291 280 271 261 247 241 240 231 220 221 232 242 223 218 222 228
321 335 352 341 341 344 337 345 344 339 5 9 359 342 328 324 320 324 327 326 319 311 311 312 312 311 311 304 293 276 263 260 240 238 226 220 210 212 219 221 223 233 214 217
311 2 354 341 336 336 346 349 347 6 14 21 354 336 329 332 329 326 326 324 321 322 319 321 317 320 313 311 307 286 254 252 241 232 222 210 208 196 202 212 209 217 223 244
5 9 348 342 341 353 354 356 357 20 32 6 351 338 331 327 327 326 327 329 331 332 334 330 328 329 327 325 333 290 262 268 260 231 217 182 177 183 194 206 203 199 202 220
19 3 350 351 358 1 8 358 13 19 35 5 346 340 341 340 335 332 333 335 342 329 328 327 333 335 335 336 336 349 357 324 347 54 32 140 153 174 180 186 194 184 195 210
9 12 5 3 2 15 11 9 20 24 27 9 346 347 341 335 335 336 339 343 340 340 336 339 345 345 341 339 351 3 12 10 14 26 85 106 134 151 167 186 186 185 191 196
16 26 10 10 16 17 24 24 27 28 27 4 349 352 349 344 343 347 347 350 335 344 345 350 349 349 346 354 10 17 17 19 18 19 23 43 118 143 161 183 183 185 184 176
33 33 18 29 23 23 23 29 30 27 26 15 357 358 358 348 344 353 351 348 349 348 353 355 350 355 0 16 19 20 21 19 20 20 20 22 27 31 35 64 153 176 178 182
42 44 27 41 32 28 25 34 42 15 40 48 15 360 2 356 1 4 347 345 352 357 1 358 0 7 19 20 20 22 21 19 16 18 20 21 25 25 25 27 33 28 44 116
49 51 40 29 40 25 32 9 55 16 13 44 59 11 20 12 7 354 357 356 1 5 6 6 12 17 24 23 21 22 21 16 17 16 21 24 23 24 26 27 24 21 29 29
41 47 51 38 31 35 35 15 34 37 9 21 46 44 30 23 10 10 9 8 12 10 16 13 17 20 22 24 23 23 21 19 17 20 21 25 27 26 21 22 24 23 21 14
69 39 34 44 33 31 38 54 21 41 28 16 30 42 35 31 22 18 17 20 20 19 20 20 21 23 24 24 24 24 23 22 24 21 22 23 26 27 24 25 26 26 28 26